946  
ASUS44 KEWX 230010  
RWRTX  
SOUTH TEXAS REGIONAL WEATHER ROUNDUP  
NATIONAL WEATHER SERVICE AUSTIN/SAN ANTONIO TX  
700 PM CDT MON SEP 22 2014  
 
NOTE: "FAIR" INDICATED FEW OR NO CLOUDS BELOW 12,000 FEET WITH NO  
SIGNIFICANT WEATHER AND/OR S TO VISIBILITY
.  
 
* - THESE STATIONS ARE NOT NWS OR FAA STATIONS...AND ARE NOT SUBJECT  
TO NWS AND FAA QUALITY CONTROL.
 
 
TXZ171-172-183>190-230100-  
TEXAS HILL COUNTRY AND EDWARDS PLATEAU  
 
CITY SKY/WX TMP DP RH WIND PRES REMARKS
 
JUNCTION PTCLDY 87 59 38 E9 30.09S  
6HR MIN TEMP: 85; 6HR MAX TEMP: 90;  
 
*LLANO CLEAR 86 66 51 E7 30.10R  
BURNET MOCLDY 84 65 52 E7 30.10S  
6HR MIN TEMP: 84; 6HR MAX TEMP: 91;  
 
*HORSESHOE BAY LGT RAIN 76 69 80 CALM 30.07R  
6HR MIN TEMP: 76; 6HR MAX TEMP: 90; 6HR PCP: 0.05;  
 
*KERRVILLE CLEAR 84 63 48 E3 30.09S  
6HR MIN TEMP: 83; 6HR MAX TEMP: 89;  
 
*FREDERICKSBRG PTCLDY 82 63 52 E5 30.10R  
6HR MIN TEMP: 82; 6HR MAX TEMP: 86;  
 
*ROCKSPRINGS CLEAR 82 61 47 E3 30.14R  
*BOERNE STAGE CLEAR 86 59 39 NE5 30.08S  
*CASTROVILLE CLEAR 90 58 34 E6 30.04S  
HONDO PTCLDY 90 59 35 E12 30.05R  
6HR MIN TEMP: 90; 6HR MAX TEMP: 95;  
 
*UVALDE CLEAR 91 62 38 SE6 30.04R HX 91  
6HR MIN TEMP: 88; 6HR MAX TEMP: 93;  
 
DEL RIO PTCLDY 86 61 42 SE5 30.03S  
6HR MIN TEMP: 85; 6HR MAX TEMP: 91;  
 
LAUGHLIN AFB PTCLDY 87 63 43 S3 30.04R  
6HR MIN TEMP: 85; 6HR MAX TEMP: 91;  
 
CARRIZO SPRGS CLEAR 90 63 40 E6 30.01R HX 90  

 
 
TXZ173-191>194-202-209-217>225-228-230100-  
CENTRAL AND SOUTH CENTRAL TEXAS  
 
CITY SKY/WX TMP DP RH WIND PRES REMARKS
 
GEORGETOWN CLEAR 84 68 58 MISG 30.05F  
AUSTIN/BERGSTM MOCLDY 85 69 58 NE13 30.04R  
6HR MIN TEMP: 85; 6HR MAX TEMP: 91;  
 
AUSTIN/MABRY PTCLDY 86 69 56 VRB3 30.05S HX 90  
6HR MIN TEMP: 86; 6HR MAX TEMP: 91;  
 
*AUSTIN/EXEC CLOUDY 81 72 74 E7 30.05F  
*LAGO VISTA PTCLDY 84 67 57 E10 30.08S  
6HR MIN TEMP: 84; 6HR MAX TEMP: 91;  
 
SAN MARCOS PTCLDY 88 66 48 NE14 30.04R HX 90  
NEW BRAUNFELS CLEAR 89 65 44 NE12 30.02R HX 91  
6HR MIN TEMP: 89; 6HR MAX TEMP: 94;  
 
RANDOLPH AFB CLEAR 88 64 45 NE10 30.04R  
6HR MIN TEMP: 88; 6HR MAX TEMP: 92;  
 
PT SAN ANTONIO PTCLDY 89 63 41 NE12 30.02R HX 90  
6HR MIN TEMP: 89; 6HR MAX TEMP: 94;  
 
SAN ANTONIO PTCLDY 90 62 39 NE9 30.04R HX 90  
6HR MIN TEMP: 88; 6HR MAX TEMP: 94;  
 
STINSON FIELD CLEAR 90 63 40 NE10 30.01R HX 91  
6HR MIN TEMP: 90; 6HR MAX TEMP: 95;  
 
*PLEASANTON PTCLDY 90 61 37 NE6 30.01S HX 90  
6HR MIN TEMP: 90; 6HR MAX TEMP: 95;  
 
*LA GRANGE CLEAR 85 74 68 N5 30.01S HX 92  
6HR MIN TEMP: 85; 6HR MAX TEMP: 92;  
 
*GIDDINGS CLEAR 83 71 65 NE5 30.07S  
6HR MIN TEMP: 81; 6HR MAX TEMP: 90;  
 
*GONZALES PTCLDY 87 70 57 E7 30.02R HX 92  
6HR MIN TEMP: 87; 6HR MAX TEMP: 93;  
 

 
 
TXZ163>164-176>182-195>201-210>213-226-227-235-230100-  
SOUTHEAST TEXAS  
 
CITY SKY/WX TMP DP RH WIND PRES REMARKS
 
COLLEGE STN CLEAR 84 66 54 NE10 30.04R  
6HR MIN TEMP: 84; 6HR MAX TEMP: 90;  
 
*BRYAN CLEAR N/A N/A N/A NE7 30.04R  
*CALDWELL CLEAR 84 66 54 NE3 30.07R  
*CROCKETT CLEAR 82 64 54 NE6 30.09S  
*BRENHAM CLEAR 86 69 55 NE5 30.04R HX 90  
6HR MIN TEMP: 86; 6HR MAX TEMP: 92;  
 
HUNTSVILLE CLEAR 84 64 50 VRB6 30.05R  
6HR MIN TEMP: 84; 6HR MAX TEMP: 90;  
 
CONROE CLEAR 82 66 58 N5 30.04R  
6HR MIN TEMP: 82; 6HR MAX TEMP: 90;  
 
HOUSTON BUSH PTCLDY 85 69 58 NE12 30.02R  
6HR MIN TEMP: 85; 6HR MAX TEMP: 93; 6HR PCP: TRACE;  
 
HOUSTON HOBBY PTCLDY 86 71 60 NE14 30.00R HX 91  
6HR MIN TEMP: 86; 6HR MAX TEMP: 93; 6HR PCP: TRACE;  
 
*HOUSTON SW AP CLEAR 78 70 75 N3 30.01R  
6HR MIN TEMP: 75; 6HR MAX TEMP: 86;  
 
PEARLAND PTCLDY 86 73 65 NE10 30.01F HX 93  
6HR MIN TEMP: 85; 6HR MAX TEMP: 94;  
 
HOUSTON HOOKS CLEAR 84 68 58 NE7 30.02R  
6HR MIN TEMP: 84; 6HR MAX TEMP: 92;  
 
ELLINGTON FLD PTCLDY 86 73 66 NE7 30.02R HX 93  
SUGAR LAND CLEAR 80 74 81 N6 30.00S  
6HR MIN TEMP: 80; 6HR MAX TEMP: 94; 6HR PCP: TRACE;  
 
*HOUSTON EXEC CLEAR 82 82 100 NE5 30.02S HX 97  
*CLEVELAND MUN CLEAR 80 72 77 CALM 30.04R  
6HR MIN TEMP: 80; 6HR MAX TEMP: 89;  
 
*WHARTON PTCLDY 81 70 69 E9 30.01R  
6HR MIN TEMP: 81; 6HR MAX TEMP: 92;  
 

 
 
TXZ214>216-236>238-230100-  
THE UPPER TEXAS COAST  
 
CITY SKY/WX TMP DP RH WIND PRES REMARKS
 
*ORANGE CLEAR 81 66 61 N5 30.03S  
6HR MIN TEMP: 81; 6HR MAX TEMP: 87;  
 
PORT ARTHUR CLEAR 83 66 56 N12 30.01R  
6HR MIN TEMP: 83; 6HR MAX TEMP: 91; 6HR PCP: 0.11;  
 
GALVESTON MOCLDY 82 76 81 E12 30.01S  
6HR MIN TEMP: 78; 6HR MAX TEMP: 90; 6HR PCP: 0.04;  
 
ANGLETON N/A 80 73 79 NE8 30.00R  
6HR MIN TEMP: 79; 6HR MAX TEMP: 91; 6HR PCP: 0.07;  
 
*BAY CITY PTCLDY 86 76 72 SE3 29.99R HX 95  
PALACIOS PTCLDY 84 73 69 SE9 29.99S HX 90  
6HR MIN TEMP: 84; 6HR MAX TEMP: 92;  
 

 
 
TXZ229>234-239>247-230100-  
TEXAS COASTAL BEND AND RIO GRANDE PLAINS  
 
CITY SKY/WX TMP DP RH WIND PRES REMARKS
 
VICTORIA PTCLDY 86 70 58 NE7 29.99S HX 90  
6HR MIN TEMP: 86; 6HR MAX TEMP: 95;  
 
*BEEVILLE PTCLDY 90 63 41 E7 29.99S HX 90  
6HR MIN TEMP: 90; 6HR MAX TEMP: 94;  
 
ROCKPORT PTCLDY 84 73 69 SE9 29.99R HX 90  
6HR MIN TEMP: 84; 6HR MAX TEMP: 91;  
 
*PORT ARANSAS PTCLDY 84 72 67 E6 29.99S HX 90  
6HR MIN TEMP: 84; 6HR MAX TEMP: 89;  
 
*PORT LAVACA NOT AVBL  
*INGLESIDE PTCLDY 88 69 53 E8 29.99S HX 92  
CORPUS CHRISTI MOCLDY 85 68 56 E16 29.99S  
6HR MIN TEMP: 85; 6HR MAX TEMP: 90;  
 
CORPUS NAS MOCLDY 85 72 65 E10 29.99S HX 91  
6HR MIN TEMP: 85; 6HR MAX TEMP: 89;  
 
*ROBSTOWN PTCLDY 87 67 51 E12 30.00R  
6HR MIN TEMP: 87; 6HR MAX TEMP: 91;  
 
ALICE CLEAR 86 66 51 E12 30.00R  
6HR MIN TEMP: 86; 6HR MAX TEMP: 93;  
 
KINGSVILLE NAS MOCLDY 86 68 54 E13 30.00R  
6HR MIN TEMP: 85; 6HR MAX TEMP: 92;  
 
COTULLA PTCLDY 90 64 42 E6 30.00S HX 91  
6HR MIN TEMP: 88; 6HR MAX TEMP: 94;  
 
*FAITH RANCH CLEAR 90 59 35 SE6 30.02S  
LAREDO PTCLDY 89 62 40 E8 30.03R  
6HR MIN TEMP: 87; 6HR MAX TEMP: 93;  
 

 
 
TXZ248>255-230100-  
DEEP SOUTH TEXAS  
 
CITY SKY/WX TMP DP RH WIND PRES REMARKS
 
BROWNSVILLE PTCLDY 85 74 69 NE12G20 29.97R HX 92  
6HR MIN TEMP: 83; 6HR MAX TEMP: 88; 6HR PCP: TRACE;  
 
PORT ISABEL NOT AVBL  
*SOUTH PADRE PTCLDY 84 75 74 E12 29.97R HX 92  
HARLINGEN PTCLDY 83 74 74 NE10 29.97R  
6HR MIN TEMP: 82; 6HR MAX TEMP: 88; 6HR PCP: TRACE;  
 
*HEBBRONVILLE CLEAR 86 61 43 E9 30.03S  
MCALLEN PTCLDY 85 70 60 E16 29.99R  
6HR MIN TEMP: 83; 6HR MAX TEMP: 90; 6HR PCP: 0.01;  
 
*WESLACO PTCLDY 84 70 61 NE13 29.98R  
 
CLICK HERE TO GO TO PREVIOUS BULLETINS.

The Nexlab TX Page Main Text Page